| time (UTC) | temp F | wind direction | speed knots | gust knots | rain 1hr in | rain 24hr in | rain mn in | humidity % | barometer mb |
| 20260502170440 | 72 | 28 | 0.9 | 5.2 | 0.00 | 1.17 | 0.00 | 54 | 1010.2 |
| 20260502170321 | 72 | 39 | 1.7 | 5.2 | 0.00 | 1.17 | 0.00 | 55 | 1010.2 |
| 20260502152249 | 67 | 49 | 0.9 | 4.3 | 0.00 | 1.54 | 0.00 | 68 | 1018.3 |
| 20260502152142 | 67 | 18 | 0.9 | 4.3 | 0.00 | 1.54 | 0.00 | 69 | 1018.3 |
| 20260502152010 | 67 | 350 | 0.0 | 4.3 | 0.00 | 1.54 | 0.00 | 71 | 1018.3 |
| 20260502151842 | 67 | 311 | 0.0 | 4.3 | 0.00 | 1.54 | 0.00 | 71 | 1018.3 |
| 20260502151314 | 67 | 304 | 0.0 | 3.5 | 0.00 | 1.54 | 0.00 | 71 | 1023.1 |
| 20260502151206 | 66 | 42 | 0.9 | 4.3 | 0.00 | 1.54 | 0.00 | 72 | 1023.1 |
| 20260502151057 | 66 | 305 | 0.0 | 4.3 | 0.00 | 1.54 | 0.00 | 73 | 1023.1 |
| 20260502150935 | 66 | 279 | 0.0 | 4.3 | 0.00 | 1.54 | 0.00 | 71 | 1023.1 |
| 20260502150813 | 66 | 360 | 0.9 | 4.3 | 0.00 | 1.54 | 0.00 | 71 | 1023.1 |
| 20260502150659 | 66 | 347 | 0.9 | 4.3 | 0.00 | 1.54 | 0.00 | 71 | 1023.1 |
| 20260502150414 | 65 | 313 | 0.9 | 7.0 | 0.00 | 1.54 | 0.00 | 71 | 1023.1 |
| 20260502150306 | 65 | 78 | 0.9 | 7.0 | 0.00 | 1.54 | 0.00 | 71 | 1023.1 |
| 20260502150131 | 65 | 13 | 0.9 | 7.0 | 0.00 | 1.54 | 0.00 | 72 | 1023.1 |
| 20260502130654 | 54 | 313 | 0.0 | 0.9 | 0.00 | 1.91 | 0.00 | 90 | 1021.8 |
| 20260502130525 | 54 | 327 | 0.0 | 0.9 | 0.00 | 1.91 | 0.00 | 90 | 1021.8 |
| 20260502130416 | 54 | 309 | 0.0 | 0.9 | 0.00 | 1.91 | 0.00 | 90 | 1021.8 |
| 20260502130246 | 54 | 313 | 0.0 | 0.9 | 0.00 | 1.91 | 0.00 | 90 | 1021.8 |
| 20260502130129 | 54 | 299 | 0.0 | 0.9 | 0.00 | 1.91 | 0.00 | 90 | 1021.8 |
| 20260502123730 | 53 | 319 | 0.0 | 1.7 | 0.00 | 2.11 | 0.00 | 90 | 1021.5 |
| 20260502123622 | 53 | 319 | 0.0 | 1.7 | 0.00 | 2.11 | 0.00 | 90 | 1021.5 |
| 20260502123502 | 53 | 319 | 0.0 | 1.7 | 0.00 | 2.11 | 0.00 | 90 | 1021.5 |
| 20260502123336 | 53 | 319 | 0.0 | 2.6 | 0.00 | 2.11 | 0.00 | 90 | 1021.5 |
| 20260502123227 | 53 | 319 | 0.0 | 2.6 | 0.00 | 2.11 | 0.00 | 90 | 1021.5 |
| 20260502123120 | 53 | 300 | 0.0 | 2.6 | 0.00 | 2.11 | 0.00 | 90 | 1021.5 |
| 20260502123011 | 53 | 300 | 0.0 | 2.6 | 0.00 | 2.11 | 0.00 | 90 | 1021.5 |
| 20260502122847 | 53 | 298 | 0.0 | 2.6 | 0.00 | 2.11 | 0.00 | 90 | 1021.3 |
| 20260502122718 | 53 | 298 | 0.0 | 2.6 | 0.00 | 2.11 | 0.00 | 90 | 1021.3 |
| 20260502122548 | 53 | 305 | 0.0 | 1.7 | 0.00 | 2.11 | 0.00 | 90 | 1021.3 |
| 20260502122420 | 52 | 305 | 0.0 | 0.0 | 0.00 | 2.11 | 0.00 | 90 | 1021.3 |
| 20260502122248 | 52 | 305 | 0.0 | 0.0 | 0.00 | 2.11 | 0.00 | 90 | 1021.3 |
| 20260502122117 | 52 | 305 | 0.0 | 2.6 | 0.00 | 2.11 | 0.00 | 90 | 1021.3 |
| 20260502121948 | 52 | 305 | 0.0 | 2.6 | 0.00 | 2.11 | 0.00 | 90 | 1021.3 |
| 20260502121839 | 52 | 305 | 0.0 | 2.6 | 0.00 | 2.11 | 0.00 | 90 | 1021.3 |
| 20260502121631 | 52 | 305 | 0.0 | 2.6 | 0.00 | 2.11 | 0.00 | 90 | 1021.3 |
| 20260502121524 | 52 | 305 | 0.0 | 2.6 | 0.00 | 2.11 | 0.00 | 90 | 1021.3 |
| 20260502121415 | 52 | 304 | 0.0 | 2.6 | 0.00 | 2.11 | 0.00 | 90 | 1021.3 |
| 20260502121307 | 52 | 310 | 0.0 | 1.7 | 0.00 | 2.11 | 0.00 | 90 | 1021.2 |
| 20260502121115 | 52 | 281 | 0.0 | 0.0 | 0.00 | 2.11 | 0.00 | 90 | 1021.2 |
| 20260502120946 | 52 | 281 | 0.0 | 0.9 | 0.00 | 2.11 | 0.00 | 90 | 1021.2 |
| 20260502120817 | 52 | 281 | 0.0 | 0.9 | 0.00 | 2.11 | 0.00 | 90 | 1021.2 |
| 20260502120706 | 52 | 281 | 0.0 | 0.9 | 0.00 | 2.11 | 0.00 | 90 | 1021.2 |
| 20260502120543 | 52 | 281 | 0.0 | 0.9 | 0.00 | 2.11 | 0.00 | 90 | 1021.2 |
| 20260502120434 | 52 | 281 | 0.0 | 0.9 | 0.00 | 2.11 | 0.00 | 90 | 1021.2 |
| 20260502120324 | 52 | 281 | 0.0 | 0.9 | 0.00 | 2.11 | 0.00 | 90 | 1021.2 |
| 20260502120155 | 52 | 281 | 0.0 | 0.9 | 0.00 | 2.11 | 0.00 | 90 | 1021.2 |
| 20260502115915 | 52 | 212 | 0.0 | 0.0 | 0.00 | 2.34 | 0.00 | 90 | 1020.8 |
| 20260502115745 | 52 | 202 | 0.0 | 0.0 | 0.00 | 2.34 | 0.00 | 90 | 1020.8 |
| 20260502115629 | 52 | 202 | 0.0 | 0.0 | 0.00 | 2.34 | 0.00 | 90 | 1020.8 |
| 20260502115443 | 52 | 303 | 0.0 | 0.9 | 0.00 | 2.34 | 0.00 | 90 | 1020.8 |
| 20260502115334 | 52 | 303 | 0.0 | 0.9 | 0.00 | 2.34 | 0.00 | 90 | 1020.8 |
| 20260502115226 | 52 | 303 | 0.0 | 0.9 | 0.00 | 2.34 | 0.00 | 90 | 1020.8 |
| 20260502115118 | 52 | 303 | 0.0 | 0.9 | 0.00 | 2.34 | 0.00 | 90 | 1020.8 |
| 20260502114953 | 52 | 303 | 0.0 | 0.9 | 0.00 | 2.34 | 0.00 | 90 | 1020.8 |
| 20260502114845 | 52 | 302 | 0.0 | 0.9 | 0.00 | 2.34 | 0.00 | 90 | 1020.8 |
| 20260502114736 | 52 | 302 | 0.0 | 0.9 | 0.00 | 2.34 | 0.00 | 90 | 1020.8 |
| 20260502114629 | 52 | 315 | 0.0 | 0.9 | 0.00 | 2.34 | 0.00 | 90 | 1020.8 |
| 20260502114328 | 52 | 338 | 0.0 | 0.9 | 0.00 | 2.34 | 0.00 | 90 | 1020.7 |
| 20260502114219 | 52 | 338 | 0.0 | 0.9 | 0.00 | 2.34 | 0.00 | 90 | 1020.7 |
| 20260502114049 | 52 | 338 | 0.0 | 0.9 | 0.00 | 2.34 | 0.00 | 90 | 1020.7 |
| 20260502113925 | 52 | 342 | 0.0 | 0.9 | 0.00 | 2.34 | 0.00 | 89 | 1020.7 |
| 20260502113756 | 52 | 343 | 0.0 | 0.9 | 0.00 | 2.34 | 0.00 | 90 | 1020.7 |
| 20260502113648 | 52 | 343 | 0.0 | 0.9 | 0.00 | 2.34 | 0.00 | 89 | 1020.7 |
| 20260502113539 | 52 | 332 | 0.0 | 0.9 | 0.00 | 2.34 | 0.00 | 89 | 1020.7 |
| 20260502113304 | 52 | 306 | 0.0 | 0.9 | 0.00 | 2.34 | 0.00 | 89 | 1020.7 |
| 20260502113156 | 52 | 306 | 0.0 | 0.9 | 0.00 | 2.34 | 0.00 | 89 | 1020.7 |
| 20260502113024 | 52 | 306 | 0.0 | 0.9 | 0.00 | 2.34 | 0.00 | 89 | 1020.7 |
| 20260502112914 | 52 | 306 | 0.0 | 0.9 | 0.00 | 2.34 | 0.00 | 89 | 1020.7 |
| 20260502112806 | 52 | 304 | 0.0 | 0.9 | 0.00 | 2.34 | 0.00 | 89 | 1020.5 |
| 20260502112659 | 52 | 304 | 0.0 | 0.9 | 0.00 | 2.34 | 0.00 | 89 | 1020.5 |
| 20260502103231 | 53 | 318 | 0.0 | 0.0 | 0.00 | 2.90 | 0.00 | 89 | 1020.1 |
| 20260502103141 | 53 | 318 | 0.0 | 0.0 | 0.00 | 2.90 | 0.00 | 88 | 1020.1 |
| 20260502103012 | 53 | 318 | 0.0 | 0.0 | 0.00 | 2.90 | 0.00 | 88 | 1020.1 |
| 20260502102905 | 53 | 318 | 0.0 | 0.0 | 0.00 | 2.90 | 0.00 | 88 | 1020.1 |
| 20260502102756 | 53 | 318 | 0.0 | 0.9 | 0.00 | 2.90 | 0.00 | 88 | 1020.0 |
| 20260502102624 | 53 | 318 | 0.0 | 0.9 | 0.00 | 2.90 | 0.00 | 88 | 1020.0 |
| 20260502102516 | 53 | 318 | 0.0 | 0.9 | 0.00 | 2.90 | 0.00 | 88 | 1020.0 |
| 20260502102409 | 53 | 318 | 0.0 | 0.9 | 0.00 | 2.90 | 0.00 | 88 | 1020.0 |
| 20260502102259 | 53 | 318 | 0.0 | 0.9 | 0.00 | 2.90 | 0.00 | 88 | 1020.0 |
| 20260502012500 | 58 | 323 | 0.9 | 7.0 | 0.14 | 5.70 | 5.13 | 92 | 1015.4 |
| 20260502012353 | 58 | 273 | 0.9 | 7.0 | 0.14 | 5.70 | 5.13 | 92 | 1015.4 |
| 20260502012245 | 58 | 355 | 0.9 | 7.0 | 0.13 | 5.69 | 5.12 | 92 | 1015.4 |
| 20260502012136 | 58 | 43 | 0.9 | 7.0 | 0.14 | 5.69 | 5.12 | 92 | 1015.4 |
| 20260502012027 | 58 | 288 | 0.0 | 7.0 | 0.14 | 5.69 | 5.12 | 92 | 1015.4 |
| 20260502011901 | 58 | 360 | 0.9 | 7.0 | 0.13 | 5.68 | 5.11 | 92 | 1015.4 |
| 20260502011731 | 58 | 291 | 0.0 | 3.5 | 0.12 | 5.67 | 5.10 | 92 | 1015.4 |
| 20260502011623 | 58 | 324 | 0.0 | 2.6 | 0.12 | 5.67 | 5.10 | 92 | 1015.4 |
| 20260502011454 | 58 | 343 | 0.0 | 2.6 | 0.11 | 5.66 | 5.09 | 92 | 1015.4 |
| 20260502011301 | 58 | 317 | 0.0 | 3.5 | 0.11 | 5.65 | 5.08 | 92 | 1015.6 |
| 20260502011154 | 58 | 333 | 0.0 | 3.5 | 0.11 | 5.65 | 5.08 | 92 | 1015.6 |
| 20260502011045 | 58 | 327 | 0.0 | 3.5 | 0.10 | 5.64 | 5.07 | 92 | 1015.6 |
| 20260502010938 | 59 | 316 | 0.0 | 3.5 | 0.10 | 5.64 | 5.07 | 92 | 1015.6 |
| 20260502010813 | 59 | 284 | 0.0 | 3.5 | 0.09 | 5.63 | 5.06 | 92 | 1015.6 |
| 20260502010706 | 59 | 316 | 0.0 | 3.5 | 0.09 | 5.63 | 5.06 | 92 | 1015.6 |
| 20260502010557 | 59 | 30 | 0.9 | 3.5 | 0.08 | 5.62 | 5.05 | 92 | 1015.6 |
| 20260502010450 | 59 | 290 | 0.0 | 3.5 | 0.08 | 5.62 | 5.05 | 92 | 1015.6 |
| 20260502010328 | 59 | 355 | 0.0 | 1.7 | 0.08 | 5.61 | 5.04 | 92 | 1015.6 |
| 20260502010142 | 59 | 326 | 0.0 | 1.7 | 0.07 | 5.60 | 5.03 | 92 | 1015.6 |
| 20260502010001 | 59 | 343 | 0.0 | 1.7 | 0.06 | 5.59 | 5.02 | 92 | 1015.6 |
| 20260502005837 | 59 | 69 | 0.0 | 1.7 | 0.07 | 5.59 | 5.02 | 92 | 1015.5 |
| 20260502005727 | 59 | 297 | 0.0 | 2.6 | 0.07 | 5.59 | 5.02 | 92 | 1015.5 |
| 20260502005601 | 59 | 341 | 0.0 | 2.6 | 0.08 | 5.59 | 5.02 | 92 | 1015.5 |
| 20260502005439 | 59 | 311 | 0.0 | 2.6 | 0.07 | 5.58 | 5.01 | 92 | 1015.5 |
| 20260502005314 | 59 | 304 | 0.0 | 2.6 | 0.08 | 5.58 | 5.01 | 92 | 1015.5 |
| 20260502005143 | 59 | 325 | 0.0 | 2.6 | 0.09 | 5.58 | 5.01 | 92 | 1015.5 |
| 20260502005036 | 59 | 292 | 0.0 | 2.6 | 0.09 | 5.58 | 5.01 | 92 | 1015.5 |
| 20260502004927 | 59 | 304 | 0.0 | 1.7 | 0.09 | 5.58 | 5.01 | 92 | 1015.5 |
| 20260502004743 | 59 | 259 | 0.0 | 2.6 | 0.10 | 5.58 | 5.01 | 92 | 1015.5 |
| 20260502004634 | 59 | 259 | 0.0 | 6.1 | 0.10 | 5.58 | 5.01 | 92 | 1015.5 |
| 20260502004505 | 59 | 333 | 0.0 | 6.1 | 0.11 | 5.58 | 5.01 | 92 | 1015.5 |
| 20260502004357 | 59 | 294 | 0.0 | 6.1 | 0.11 | 5.58 | 5.01 | 92 | 1014.1 |
| 20260502004224 | 59 | 304 | 0.0 | 6.1 | 0.12 | 5.58 | 5.01 | 92 | 1014.1 |
| 20260502004116 | 59 | 9 | 0.0 | 6.1 | 0.13 | 5.58 | 5.01 | 92 | 1014.1 |
| 20260502004007 | 59 | 44 | 0.9 | 6.1 | 0.12 | 5.57 | 5.00 | 92 | 1014.1 |
| 20260502003859 | 59 | 25 | 0.9 | 6.1 | 0.13 | 5.57 | 5.00 | 92 | 1014.1 |
| 20260502003736 | 59 | 327 | 0.0 | 6.1 | 0.14 | 5.57 | 5.00 | 92 | 1014.1 |
| 20260502003606 | 59 | 32 | 0.0 | 6.1 | 0.14 | 5.57 | 5.00 | 92 | 1014.1 |
| 20260502003459 | 59 | 24 | 0.0 | 6.1 | 0.16 | 5.57 | 5.00 | 92 | 1014.1 |
| 20260502003328 | 59 | 30 | 0.9 | 6.1 | 0.16 | 5.57 | 5.00 | 92 | 1014.1 |
| 20260502003158 | 59 | 44 | 0.0 | 6.1 | 0.17 | 5.57 | 5.00 | 92 | 1014.1 |
| 20260502003049 | 59 | 30 | 0.0 | 6.1 | 0.17 | 5.57 | 5.00 | 92 | 1014.1 |
| 20260502002942 | 59 | 309 | 0.9 | 6.1 | 0.17 | 5.57 | 5.00 | 92 | 1014.1 |
| 20260502002832 | 59 | 350 | 0.0 | 6.1 | 0.16 | 5.56 | 4.99 | 92 | 1015.0 |
| 20260502002707 | 59 | 319 | 0.0 | 3.5 | 0.16 | 5.56 | 4.99 | 92 | 1015.0 |
| 20260502002600 | 59 | 317 | 0.0 | 3.5 | 0.16 | 5.56 | 4.99 | 92 | 1015.0 |
| 20260502002428 | 59 | 5 | 0.0 | 3.5 | 0.16 | 5.56 | 4.99 | 92 | 1015.0 |
| 20260502002319 | 59 | 309 | 0.0 | 3.5 | 0.16 | 5.56 | 4.99 | 92 | 1015.0 |
| 20260502002125 | 59 | 344 | 0.0 | 3.5 | 0.15 | 5.55 | 4.98 | 92 | 1015.0 |
| 20260502001955 | 59 | 344 | 0.0 | 3.5 | 0.15 | 5.55 | 4.98 | 92 | 1015.0 |
| 20260502001847 | 59 | 32 | 0.0 | 3.5 | 0.15 | 5.55 | 4.98 | 92 | 1015.0 |
| 20260502001739 | 59 | 339 | 0.0 | 2.6 | 0.15 | 5.55 | 4.98 | 92 | 1015.0 |
| 20260502001614 | 59 | 360 | 0.0 | 2.6 | 0.16 | 5.55 | 4.98 | 92 | 1015.0 |
| 20260502001507 | 59 | 17 | 0.0 | 2.6 | 0.16 | 5.55 | 4.98 | 92 | 1015.0 |
| 20260502001359 | 59 | 355 | 0.0 | 0.0 | 0.15 | 5.54 | 4.97 | 92 | 1014.7 |
| 20260502001230 | 59 | 5 | 0.0 | 0.0 | 0.15 | 5.54 | 4.97 | 92 | 1014.7 |
| 20260502001044 | 59 | 325 | 0.0 | 0.0 | 0.15 | 5.54 | 4.97 | 92 | 1014.7 |
| 20260502000937 | 59 | 323 | 0.0 | 0.9 | 0.15 | 5.54 | 4.97 | 92 | 1014.7 |
| 20260502000829 | 59 | 319 | 0.0 | 0.9 | 0.16 | 5.54 | 4.97 | 92 | 1014.7 |
| 20260502000721 | 59 | 334 | 0.0 | 0.9 | 0.16 | 5.54 | 4.97 | 92 | 1014.7 |
| 20260502000525 | 59 | 19 | 0.0 | 0.9 | 0.17 | 5.54 | 4.97 | 92 | 1014.7 |
| 20260502000417 | 59 | 305 | 0.0 | 0.9 | 0.17 | 5.53 | 4.96 | 92 | 1014.7 |
| 20260502000310 | 59 | 309 | 0.0 | 0.9 | 0.18 | 5.53 | 4.96 | 92 | 1014.7 |
| 20260502000151 | 59 | 309 | 0.0 | 0.9 | 0.20 | 5.53 | 4.96 | 92 | 1014.7 |
| 20260502000017 | 59 | 309 | 0.0 | 0.9 | 0.22 | 5.53 | 4.96 | 92 | 1014.7 |
| 20260501235908 | 59 | 10 | 0.0 | 0.9 | 0.22 | 5.52 | 4.95 | 92 | 1014.7 |
| 20260501235800 | 59 | 10 | 0.0 | 0.9 | 0.27 | 5.52 | 4.95 | 92 | 1015.0 |
| 20260501235644 | 59 | 321 | 0.0 | 0.9 | 0.28 | 5.51 | 4.94 | 92 | 1015.0 |
| 20260501235458 | 59 | 360 | 0.0 | 0.9 | 0.30 | 5.51 | 4.94 | 92 | 1015.0 |
| 20260501235351 | 59 | 355 | 0.0 | 1.7 | 0.29 | 5.50 | 4.93 | 92 | 1015.0 |
| 20260501235243 | 59 | 331 | 0.0 | 1.7 | 0.29 | 5.50 | 4.93 | 92 | 1015.0 |
| 20260501235135 | 59 | 331 | 0.0 | 1.7 | 0.28 | 5.49 | 4.92 | 92 | 1015.0 |
| 20260501235010 | 59 | 329 | 0.0 | 1.7 | 0.28 | 5.49 | 4.92 | 92 | 1015.0 |
| 20260501234902 | 59 | 329 | 0.0 | 5.2 | 0.28 | 5.49 | 4.92 | 92 | 1015.0 |
| 20260501234755 | 59 | 323 | 0.0 | 5.2 | 0.27 | 5.48 | 4.91 | 92 | 1015.0 |
| 20260501234626 | 59 | 296 | 0.0 | 5.2 | 0.26 | 5.47 | 4.90 | 92 | 1015.0 |
| 20260501234434 | 59 | 343 | 0.0 | 7.0 | 0.26 | 5.47 | 4.90 | 92 | 1015.0 |
| 20260501234325 | 59 | 343 | 0.0 | 7.0 | 0.25 | 5.46 | 4.89 | 92 | 1014.5 |
| 20260501234218 | 59 | 343 | 0.9 | 7.0 | 0.25 | 5.46 | 4.89 | 92 | 1014.5 |
| 20260501234109 | 59 | 12 | 0.9 | 7.0 | 0.24 | 5.45 | 4.88 | 92 | 1014.5 |
| 20260501233946 | 59 | 342 | 0.0 | 7.0 | 0.23 | 5.44 | 4.87 | 92 | 1014.5 |
| 20260501233838 | 59 | 325 | 0.0 | 7.0 | 0.22 | 5.43 | 4.86 | 92 | 1014.5 |
| 20260501233730 | 59 | 340 | 0.9 | 7.0 | 0.22 | 5.43 | 4.86 | 92 | 1014.5 |
| 20260501233622 | 59 | 325 | 0.9 | 7.0 | 0.21 | 5.42 | 4.85 | 92 | 1014.5 |
| 20260501233437 | 59 | 44 | 0.9 | 7.0 | 0.20 | 5.41 | 4.84 | 92 | 1014.5 |
| 20260501233330 | 59 | 19 | 0.0 | 7.0 | 0.19 | 5.40 | 4.83 | 92 | 1014.5 |
| 20260501233212 | 59 | 22 | 0.0 | 7.0 | 0.19 | 5.40 | 4.83 | 92 | 1014.5 |
| 20260501233102 | 59 | 24 | 0.0 | 7.0 | 0.19 | 5.40 | 4.83 | 92 | 1014.5 |
| 20260501232913 | 60 | 360 | 0.9 | 7.0 | 0.19 | 5.40 | 4.83 | 92 | 1014.5 |
| 20260501232803 | 60 | 329 | 0.0 | 6.1 | 0.19 | 5.40 | 4.83 | 92 | 1013.2 |
| 20260501232655 | 60 | 52 | 0.0 | 7.0 | 0.19 | 5.40 | 4.83 | 92 | 1013.2 |
| 20260501232546 | 60 | 333 | 0.9 | 7.0 | 0.19 | 5.40 | 4.83 | 92 | 1013.2 |
| 20260501232422 | 60 | 338 | 0.9 | 7.0 | 0.19 | 5.40 | 4.83 | 92 | 1013.2 |
| 20260501232306 | 60 | 37 | 0.0 | 7.0 | 0.19 | 5.40 | 4.83 | 92 | 1013.2 |
| 20260501232136 | 60 | 18 | 0.0 | 7.0 | 0.19 | 5.40 | 4.83 | 92 | 1013.2 |
| 20260501232027 | 60 | 5 | 0.9 | 7.0 | 0.19 | 5.40 | 4.83 | 92 | 1013.2 |
| 20260501231904 | 60 | 9 | 0.9 | 7.0 | 0.19 | 5.40 | 4.83 | 92 | 1013.2 |
| 20260501231735 | 60 | 92 | 0.9 | 5.2 | 0.18 | 5.39 | 4.82 | 92 | 1013.2 |
| 20260501231627 | 60 | 24 | 0.0 | 2.6 | 0.18 | 5.39 | 4.82 | 92 | 1013.2 |
| 20260501231519 | 60 | 340 | 0.0 | 2.6 | 0.18 | 5.39 | 4.82 | 92 | 1013.2 |
| 20260501231355 | 60 | 13 | 0.0 | 2.6 | 0.18 | 5.39 | 4.82 | 92 | 1013.5 |
| 20260501231238 | 60 | 27 | 0.0 | 2.6 | 0.18 | 5.39 | 4.82 | 92 | 1013.5 |
| 20260501231131 | 60 | 28 | 0.0 | 2.6 | 0.18 | 5.39 | 4.82 | 92 | 1013.5 |
| 20260501231002 | 60 | 19 | 0.0 | 2.6 | 0.18 | 5.39 | 4.82 | 92 | 1013.5 |
| 20260501230831 | 60 | 13 | 0.0 | 2.6 | 0.17 | 5.38 | 4.81 | 92 | 1013.5 |
| 20260501230723 | 60 | 14 | 0.0 | 2.6 | 0.16 | 5.37 | 4.81 | 92 | 1013.5 |
| 20260501230614 | 60 | 15 | 0.0 | 5.2 | 0.16 | 5.37 | 4.80 | 92 | 1013.5 |
| 20260501230505 | 60 | 105 | 0.0 | 5.2 | 0.15 | 5.36 | 4.79 | 92 | 1013.5 |
| 20260501230357 | 60 | 5 | 0.0 | 5.2 | 0.14 | 5.35 | 4.78 | 92 | 1013.5 |
| 20260501230246 | 60 | 40 | 0.0 | 5.2 | 0.13 | 5.34 | 4.77 | 92 | 1013.5 |
| 20260501230130 | 60 | 21 | 0.0 | 5.2 | 0.11 | 5.32 | 4.75 | 92 | 1013.5 |
| 20260501230009 | 60 | 27 | 0.9 | 5.2 | 0.09 | 5.30 | 4.73 | 92 | 1013.5 |
| 20260501225837 | 60 | 5 | 0.9 | 5.2 | 0.05 | 5.26 | 4.69 | 92 | 1013.3 |
| 20260501225728 | 60 | 20 | 0.0 | 2.6 | 0.02 | 5.23 | 4.67 | 92 | 1013.3 |
| 20260501225621 | 60 | 29 | 0.0 | 1.7 | 0.01 | 5.22 | 4.65 | 92 | 1013.3 |
| 20260501225513 | 60 | 15 | 0.0 | 1.7 | 0.00 | 5.21 | 4.64 | 92 | 1013.3 |
| 20260501225347 | 60 | 338 | 0.0 | 0.0 | 0.00 | 5.21 | 4.64 | 92 | 1013.3 |
| 20260501225218 | 60 | 329 | 0.0 | 0.0 | 0.00 | 5.21 | 4.64 | 92 | 1013.3 |
| 20260501225110 | 60 | 326 | 0.0 | 3.5 | 0.00 | 5.21 | 4.64 | 92 | 1013.3 |
| 20260501225002 | 60 | 321 | 0.0 | 7.8 | 0.00 | 5.21 | 4.64 | 92 | 1013.3 |
| 20260501224831 | 60 | 321 | 0.0 | 7.8 | 0.00 | 5.21 | 4.64 | 92 | 1013.3 |
| 20260501224722 | 60 | 5 | 0.0 | 7.8 | 0.00 | 5.21 | 4.64 | 92 | 1013.3 |
| 20260501224614 | 60 | 5 | 0.0 | 7.8 | 0.00 | 5.21 | 4.64 | 92 | 1013.3 |
| 20260501224505 | 60 | 350 | 0.0 | 7.8 | 0.00 | 5.21 | 4.64 | 92 | 1013.3 |
| 20260501224341 | 60 | 360 | 0.9 | 7.8 | 0.01 | 5.21 | 4.64 | 92 | 1012.5 |
| 20260501224232 | 60 | 24 | 1.7 | 7.8 | 0.01 | 5.21 | 4.64 | 92 | 1012.5 |
| 20260501224124 | 60 | 36 | 0.9 | 7.8 | 0.01 | 5.21 | 4.64 | 92 | 1012.5 |
| 20260501223955 | 60 | 42 | 0.0 | 5.2 | 0.01 | 5.21 | 4.64 | 92 | 1012.5 |
| 20260501223810 | 60 | 33 | 0.0 | 8.7 | 0.01 | 5.21 | 4.64 | 92 | 1012.5 |
| 20260501223658 | 60 | 19 | 0.9 | 8.7 | 0.02 | 5.21 | 4.64 | 92 | 1012.5 |
| 20260501223548 | 60 | 12 | 0.9 | 8.7 | 0.02 | 5.21 | 4.64 | 92 | 1012.5 |
| 20260501223411 | 60 | 5 | 0.0 | 8.7 | 0.02 | 5.21 | 4.64 | 92 | 1012.5 |
| 20260501223247 | 60 | 355 | 0.9 | 8.7 | 0.02 | 5.21 | 4.64 | 92 | 1012.5 |
| 20260501223134 | 60 | 55 | 0.9 | 8.7 | 0.02 | 5.21 | 4.64 | 92 | 1012.5 |
| 20260501223025 | 60 | 25 | 0.9 | 8.7 | 0.02 | 5.21 | 4.64 | 92 | 1012.5 |
| 20260501222918 | 60 | 37 | 0.0 | 6.1 | 0.02 | 5.21 | 4.64 | 92 | 1012.5 |
| 20260501222753 | 60 | 348 | 0.9 | 6.1 | 0.02 | 5.21 | 4.64 | 92 | 1012.2 |
| 20260501222644 | 60 | 13 | 0.9 | 8.7 | 0.03 | 5.21 | 4.64 | 92 | 1012.2 |
| 20260501222536 | 60 | 5 | 0.0 | 8.7 | 0.03 | 5.21 | 4.64 | 92 | 1012.2 |
| 20260501222429 | 60 | 348 | 0.0 | 8.7 | 0.03 | 5.21 | 4.64 | 92 | 1012.2 |
| 20260501222257 | 60 | 13 | 0.0 | 8.7 | 0.04 | 5.21 | 4.64 | 92 | 1012.2 |
| 20260501222128 | 61 | 115 | 0.0 | 8.7 | 0.05 | 5.21 | 4.64 | 92 | 1012.2 |
| 20260501222019 | 61 | 348 | 1.7 | 8.7 | 0.06 | 5.21 | 4.64 | 92 | 1012.2 |
| 20260501221911 | 61 | 11 | 1.7 | 8.7 | 0.07 | 5.21 | 4.64 | 92 | 1012.2 |
| 20260501221747 | 61 | 329 | 0.9 | 7.0 | 0.08 | 5.21 | 4.64 | 92 | 1012.2 |
| 20260501221639 | 61 | 342 | 1.7 | 7.0 | 0.08 | 5.21 | 4.64 | 92 | 1012.2 |
| 20260501221531 | 61 | 348 | 0.9 | 7.0 | 0.08 | 5.21 | 4.64 | 92 | 1012.2 |
| 20260501221402 | 61 | 16 | 0.9 | 7.0 | 0.08 | 5.21 | 4.64 | 92 | 1012.9 |
| 20260501221231 | 61 | 351 | 0.9 | 7.0 | 0.08 | 5.21 | 4.64 | 92 | 1012.9 |
| 20260501221103 | 61 | 360 | 0.9 | 7.0 | 0.08 | 5.21 | 4.64 | 92 | 1012.9 |
| 20260501220953 | 61 | 31 | 0.9 | 7.0 | 0.08 | 5.21 | 4.64 | 92 | 1012.9 |
| 20260501220843 | 61 | 5 | 0.9 | 7.0 | 0.08 | 5.21 | 4.64 | 92 | 1012.9 |
| 20260501220716 | 61 | 55 | 0.9 | 7.8 | 0.08 | 5.21 | 4.64 | 92 | 1012.9 |
| 20260501220609 | 61 | 5 | 0.0 | 7.8 | 0.08 | 5.21 | 4.64 | 92 | 1012.9 |
| 20260501220458 | 61 | 41 | 0.0 | 7.8 | 0.08 | 5.21 | 4.64 | 92 | 1012.9 |
| 20260501220349 | 61 | 20 | 0.0 | 7.8 | 0.08 | 5.21 | 4.64 | 92 | 1012.9 |
| 20260501220204 | 61 | 309 | 0.9 | 7.8 | 0.08 | 5.21 | 4.64 | 92 | 1012.9 |
| 20260501220040 | 61 | 28 | 0.9 | 7.8 | 0.08 | 5.21 | 4.64 | 92 | 1012.9 |
| 20260501215921 | 61 | 34 | 0.9 | 7.8 | 0.09 | 5.21 | 4.64 | 92 | 1012.9 |
| 20260501215756 | 61 | 5 | 0.9 | 6.1 | 0.09 | 5.21 | 4.64 | 92 | 1013.5 |
| 20260501215648 | 61 | 355 | 0.9 | 6.1 | 0.09 | 5.21 | 4.64 | 92 | 1013.5 |
| 20260501215540 | 61 | 22 | 0.9 | 6.1 | 0.09 | 5.21 | 4.64 | 92 | 1013.5 |
| 20260501215432 | 61 | 327 | 0.9 | 6.1 | 0.09 | 5.21 | 4.64 | 92 | 1013.5 |
| 20260501215307 | 61 | 346 | 0.0 | 6.1 | 0.09 | 5.21 | 4.64 | 92 | 1013.5 |
| 20260501215159 | 61 | 267 | 0.9 | 6.1 | 0.10 | 5.21 | 4.64 | 92 | 1013.5 |
| 20260501215043 | 61 | 54 | 0.0 | 4.3 | 0.10 | 5.21 | 4.64 | 92 | 1013.5 |
| 20260501214935 | 61 | 9 | 0.0 | 4.3 | 0.10 | 5.21 | 4.64 | 92 | 1013.5 |
| 20260501214810 | 61 | 48 | 0.0 | 4.3 | 0.10 | 5.21 | 4.64 | 92 | 1013.5 |
| 20260501214701 | 61 | 348 | 0.0 | 4.3 | 0.10 | 5.21 | 4.64 | 92 | 1013.5 |
| 20260501214553 | 61 | 19 | 0.9 | 3.5 | 0.09 | 5.20 | 4.63 | 92 | 1013.5 |
| 20260501214424 | 61 | 43 | 0.0 | 3.5 | 0.10 | 5.20 | 4.63 | 92 | 1013.5 |
| 20260501214301 | 61 | 325 | 0.0 | 3.5 | 0.10 | 5.20 | 4.63 | 92 | 1014.0 |
| 20260501214151 | 61 | 355 | 0.0 | 4.3 | 0.10 | 5.20 | 4.63 | 92 | 1014.0 |
| 20260501214043 | 61 | 13 | 0.0 | 4.3 | 0.10 | 5.20 | 4.63 | 92 | 1014.0 |
| 20260501213936 | 61 | 315 | 0.0 | 4.3 | 0.10 | 5.20 | 4.63 | 92 | 1014.0 |
| 20260501213803 | 61 | 315 | 0.0 | 4.3 | 0.10 | 5.19 | 4.62 | 92 | 1014.0 |
| 20260501213653 | 61 | 40 | 0.0 | 4.3 | 0.10 | 5.19 | 4.62 | 92 | 1014.0 |
| 20260501213545 | 61 | 302 | 0.0 | 4.3 | 0.10 | 5.19 | 4.62 | 92 | 1014.0 |
| 20260501213436 | 61 | 5 | 0.9 | 4.3 | 0.11 | 5.19 | 4.62 | 92 | 1014.0 |
| 20260501213310 | 61 | 31 | 0.9 | 4.3 | 0.11 | 5.19 | 4.62 | 92 | 1014.0 |
| 20260501213201 | 61 | 22 | 0.0 | 1.7 | 0.12 | 5.19 | 4.62 | 92 | 1014.0 |
| 20260501213053 | 61 | 15 | 0.0 | 1.7 | 0.12 | 5.19 | 4.62 | 92 | 1014.0 |
| 20260501212945 | 61 | 342 | 0.0 | 1.7 | 0.12 | 5.19 | 4.62 | 92 | 1014.0 |
| 20260501212753 | 61 | 318 | 0.0 | 2.6 | 0.12 | 5.19 | 4.62 | 92 | 1013.4 |
| 20260501212645 | 61 | 304 | 0.0 | 2.6 | 0.11 | 5.18 | 4.61 | 92 | 1013.4 |
| 20260501212536 | 61 | 289 | 0.0 | 3.5 | 0.11 | 5.18 | 4.61 | 92 | 1013.4 |
| 20260501212429 | 61 | 298 | 0.0 | 3.5 | 0.12 | 5.18 | 4.61 | 92 | 1013.4 |
| 20260501212306 | 61 | 5 | 0.0 | 3.5 | 0.11 | 5.17 | 4.60 | 92 | 1013.4 |
| 20260501212135 | 61 | 355 | 0.0 | 3.5 | 0.10 | 5.16 | 4.59 | 92 | 1013.4 |
| 20260501212026 | 61 | 65 | 0.0 | 3.5 | 0.10 | 5.15 | 4.58 | 92 | 1013.4 |
| 20260501211919 | 61 | 340 | 0.0 | 3.5 | 0.08 | 5.13 | 4.56 | 92 | 1013.4 |
| 20260501211748 | 61 | 342 | 0.0 | 2.6 | 0.08 | 5.13 | 4.56 | 92 | 1013.4 |
| 20260501211640 | 61 | 308 | 0.0 | 2.6 | 0.09 | 5.13 | 4.56 | 92 | 1013.4 |
| 20260501211532 | 61 | 15 | 0.0 | 2.6 | 0.09 | 5.13 | 4.56 | 92 | 1013.4 |
| 20260501211424 | 61 | 318 | 0.0 | 0.9 | 0.10 | 5.13 | 4.56 | 92 | 1013.4 |
| 20260501211258 | 62 | 313 | 0.0 | 0.9 | 0.13 | 5.13 | 4.56 | 92 | 1012.2 |
| 20260501211150 | 62 | 313 | 0.0 | 0.9 | 0.14 | 5.13 | 4.56 | 93 | 1012.2 |
| 20260501211042 | 62 | 325 | 0.0 | 0.9 | 0.14 | 5.13 | 4.56 | 93 | 1012.2 |
| 20260501210933 | 62 | 348 | 0.0 | 0.9 | 0.14 | 5.13 | 4.56 | 93 | 1012.2 |
| 20260501210800 | 62 | 348 | 0.0 | 1.7 | 0.14 | 5.13 | 4.56 | 93 | 1012.2 |
| 20260501210630 | 62 | 346 | 0.0 | 2.6 | 0.14 | 5.13 | 4.56 | 93 | 1012.2 |
| 20260501210522 | 62 | 336 | 0.0 | 2.6 | 0.15 | 5.13 | 4.56 | 93 | 1012.2 |
| 20260501210414 | 62 | 348 | 0.0 | 3.5 | 0.16 | 5.13 | 4.56 | 93 | 1012.2 |
| 20260501210244 | 62 | 334 | 0.0 | 3.5 | 0.16 | 5.13 | 4.56 | 92 | 1012.2 |
| 20260501210130 | 62 | 355 | 0.0 | 3.5 | 0.17 | 5.13 | 4.56 | 92 | 1012.2 |
| 20260501210010 | 62 | 15 | 0.0 | 3.5 | 0.18 | 5.12 | 4.55 | 93 | 1012.2 |
| 20260501205841 | 62 | 355 | 0.0 | 3.5 | 0.18 | 5.12 | 4.55 | 93 | 1012.5 |
| 20260501205716 | 62 | 12 | 0.0 | 3.5 | 0.19 | 5.12 | 4.55 | 93 | 1012.5 |
| 20260501205609 | 62 | 347 | 0.0 | 3.5 | 0.19 | 5.12 | 4.55 | 93 | 1012.5 |
| 20260501205501 | 62 | 34 | 0.0 | 3.5 | 0.20 | 5.12 | 4.55 | 93 | 1012.5 |
| 20260501205353 | 62 | 5 | 0.0 | 3.5 | 0.20 | 5.12 | 4.55 | 92 | 1012.5 |
| 20260501205222 | 62 | 23 | 0.0 | 3.5 | 0.19 | 5.11 | 4.54 | 92 | 1012.5 |
| 20260501205114 | 62 | 11 | 0.0 | 2.6 | 0.20 | 5.11 | 4.54 | 92 | 1012.5 |
| 20260501204945 | 61 | 346 | 0.0 | 2.6 | 0.21 | 5.11 | 4.54 | 92 | 1012.5 |
| 20260501204835 | 61 | 349 | 0.0 | 3.5 | 0.22 | 5.11 | 4.54 | 92 | 1012.5 |
| 20260501204711 | 61 | 5 | 0.0 | 3.5 | 0.22 | 5.11 | 4.54 | 92 | 1012.5 |
| 20260501204600 | 61 | 328 | 0.0 | 3.5 | 0.22 | 5.11 | 4.54 | 92 | 1012.5 |
| 20260501204430 | 61 | 348 | 0.0 | 3.5 | 0.21 | 5.10 | 4.53 | 92 | 1012.5 |
| 20260501204322 | 62 | 40 | 0.0 | 3.5 | 0.21 | 5.10 | 4.53 | 92 | 1013.1 |
| 20260501204150 | 62 | 21 | 0.0 | 3.5 | 0.21 | 5.10 | 4.53 | 92 | 1013.1 |
| 20260501204040 | 62 | 321 | 0.0 | 6.1 | 0.21 | 5.10 | 4.53 | 92 | 1013.1 |
| 20260501203932 | 62 | 313 | 0.0 | 6.1 | 0.21 | 5.10 | 4.53 | 92 | 1013.1 |
| 20260501203823 | 62 | 33 | 0.0 | 6.1 | 0.20 | 5.09 | 4.52 | 92 | 1013.1 |
| 20260501203700 | 62 | 313 | 0.0 | 6.1 | 0.20 | 5.09 | 4.52 | 92 | 1013.1 |
| 20260501203551 | 62 | 355 | 0.0 | 6.1 | 0.20 | 5.09 | 4.52 | 92 | 1013.1 |
| 20260501203444 | 62 | 43 | 0.0 | 6.1 | 0.19 | 5.08 | 4.51 | 92 | 1013.1 |
| 20260501203336 | 62 | 5 | 0.9 | 6.1 | 0.19 | 5.08 | 4.51 | 92 | 1013.1 |
| 20260501203212 | 62 | 12 | 0.0 | 2.6 | 0.18 | 5.07 | 4.50 | 92 | 1013.1 |
| 20260501203104 | 62 | 329 | 0.0 | 0.9 | 0.18 | 5.07 | 4.50 | 92 | 1013.1 |
| 20260501202948 | 62 | 288 | 0.0 | 2.6 | 0.18 | 5.07 | 4.50 | 92 | 1013.1 |
| 20260501202818 | 62 | 314 | 0.0 | 2.6 | 0.18 | 5.07 | 4.50 | 92 | 1011.9 |
| 20260501202653 | 62 | 324 | 0.0 | 2.6 | 0.18 | 5.07 | 4.50 | 92 | 1011.9 |
| 20260501202544 | 62 | 16 | 0.0 | 2.6 | 0.17 | 5.06 | 4.49 | 92 | 1011.9 |
| 20260501202437 | 62 | 300 | 0.0 | 2.6 | 0.17 | 5.06 | 4.49 | 92 | 1011.9 |
| 20260501202329 | 62 | 27 | 0.0 | 7.0 | 0.17 | 5.06 | 4.49 | 92 | 1011.9 |
| 20260501202144 | 62 | 22 | 0.0 | 7.0 | 0.17 | 5.06 | 4.49 | 92 | 1011.9 |
| 20260501202035 | 62 | 30 | 0.0 | 7.0 | 0.16 | 5.05 | 4.48 | 92 | 1011.9 |
| 20260501201925 | 62 | 22 | 0.0 | 7.0 | 0.16 | 5.05 | 4.48 | 92 | 1011.9 |
| 20260501201754 | 62 | 5 | 0.0 | 7.0 | 0.16 | 5.05 | 4.48 | 92 | 1011.9 |
| 20260501201621 | 62 | 26 | 0.9 | 7.0 | 0.16 | 5.04 | 4.47 | 92 | 1011.9 |
| 20260501201512 | 62 | 34 | 0.9 | 5.2 | 0.15 | 5.03 | 4.46 | 92 | 1011.9 |
| 20260501201403 | 62 | 62 | 0.0 | 5.2 | 0.13 | 5.01 | 4.44 | 92 | 1011.7 |
| 20260501201234 | 62 | 274 | 0.0 | 5.2 | 0.12 | 5.00 | 4.43 | 92 | 1011.7 |
| 20260501201110 | 62 | 18 | 0.0 | 5.2 | 0.11 | 4.99 | 4.42 | 92 | 1011.7 |
| 20260501201003 | 62 | 318 | 0.0 | 5.2 | 0.11 | 4.99 | 4.42 | 92 | 1011.7 |
| 20260501200854 | 62 | 71 | 0.0 | 5.2 | 0.12 | 4.99 | 4.42 | 92 | 1011.7 |
| 20260501200747 | 63 | 30 | 0.0 | 3.5 | 0.12 | 4.99 | 4.42 | 92 | 1011.7 |
| 20260501200533 | 63 | 5 | 0.0 | 3.5 | 0.11 | 4.98 | 4.41 | 92 | 1011.7 |
| 20260501200425 | 63 | 29 | 0.0 | 3.5 | 0.11 | 4.98 | 4.41 | 92 | 1011.7 |
| 20260501200316 | 63 | 13 | 0.0 | 3.5 | 0.10 | 4.97 | 4.40 | 92 | 1011.7 |
| 20260501200209 | 63 | 297 | 0.0 | 3.5 | 0.09 | 4.96 | 4.39 | 92 | 1011.7 |
| 20260501200056 | 63 | 14 | 0.0 | 3.5 | 0.08 | 4.95 | 4.38 | 92 | 1011.7 |
| 20260501195936 | 63 | 316 | 0.0 | 1.7 | 0.07 | 4.94 | 4.37 | 92 | 1011.7 |
| 20260501195829 | 63 | 27 | 0.0 | 0.9 | 0.07 | 4.93 | 4.36 | 92 | 1012.1 |
| 20260501195720 | 63 | 331 | 0.0 | 0.9 | 0.07 | 4.93 | 4.36 | 93 | 1012.1 |
| 20260501195556 | 63 | 325 | 0.0 | 0.9 | 0.08 | 4.93 | 4.36 | 93 | 1012.1 |
| 20260501195446 | 63 | 329 | 0.0 | 0.9 | 0.07 | 4.92 | 4.35 | 93 | 1012.1 |
| 20260501195337 | 63 | 329 | 0.0 | 0.9 | 0.07 | 4.92 | 4.35 | 93 | 1012.1 |
| 20260501195219 | 63 | 342 | 0.0 | 0.9 | 0.07 | 4.91 | 4.34 | 93 | 1012.1 |
| 20260501195034 | 63 | 299 | 0.0 | 0.9 | 0.06 | 4.90 | 4.33 | 93 | 1012.1 |
| 20260501194925 | 63 | 331 | 0.0 | 0.0 | 0.05 | 4.89 | 4.32 | 93 | 1012.1 |
| 20260501194756 | 63 | 306 | 0.0 | 0.0 | 0.06 | 4.89 | 4.32 | 93 | 1012.1 |
| 20260501194644 | 63 | 306 | 0.0 | 2.6 | 0.06 | 4.89 | 4.32 | 93 | 1012.1 |
| 20260501194458 | 63 | 319 | 0.0 | 2.6 | 0.06 | 4.89 | 4.32 | 93 | 1012.1 |
| 20260501194350 | 63 | 295 | 0.0 | 2.6 | 0.06 | 4.89 | 4.32 | 93 | 1011.9 |
| 20260501194242 | 63 | 13 | 0.0 | 2.6 | 0.07 | 4.89 | 4.32 | 93 | 1011.9 |
| 20260501194135 | 63 | 13 | 0.0 | 2.6 | 0.07 | 4.89 | 4.32 | 93 | 1011.9 |
| 20260501194004 | 63 | 15 | 0.0 | 2.6 | 0.08 | 4.89 | 4.32 | 93 | 1011.9 |
| 20260501193855 | 63 | 5 | 0.0 | 2.6 | 0.08 | 4.89 | 4.32 | 93 | 1011.9 |
| 20260501193748 | 63 | 51 | 0.0 | 2.6 | 0.09 | 4.89 | 4.32 | 93 | 1011.9 |
| 20260501193618 | 63 | 45 | 0.0 | 2.6 | 0.10 | 4.89 | 4.32 | 93 | 1011.9 |
| 20260501193455 | 63 | 25 | 0.0 | 2.6 | 0.11 | 4.89 | 4.32 | 93 | 1011.9 |
| 20260501193345 | 63 | 46 | 0.0 | 2.6 | 0.12 | 4.89 | 4.32 | 93 | 1011.9 |
| 20260501193237 | 63 | 5 | 0.0 | 2.6 | 0.12 | 4.89 | 4.32 | 92 | 1011.9 |
| 20260501193129 | 63 | 30 | 0.0 | 1.7 | 0.13 | 4.89 | 4.32 | 93 | 1011.9 |
| 20260501192957 | 63 | 43 | 0.0 | 1.7 | 0.15 | 4.89 | 4.32 | 93 | 1011.9 |
| 20260501192850 | 63 | 23 | 0.0 | 1.7 | 0.16 | 4.89 | 4.32 | 93 | 1011.9 |
| 20260501192741 | 63 | 24 | 0.0 | 1.7 | 0.16 | 4.89 | 4.32 | 93 | 1011.9 |
| 20260501192634 | 63 | 46 | 0.0 | 1.7 | 0.16 | 4.89 | 4.32 | 93 | 1011.9 |
| 20260501192509 | 63 | 26 | 0.0 | 1.7 | 0.17 | 4.89 | 4.32 | 93 | 1011.9 |
| 20260501192340 | 63 | 44 | 0.0 | 5.2 | 0.17 | 4.89 | 4.32 | 93 | 1011.9 |
| 20260501192229 | 63 | 44 | 0.0 | 5.2 | 0.17 | 4.89 | 4.32 | 93 | 1011.9 |
| 20260501192121 | 63 | 44 | 0.0 | 5.2 | 0.18 | 4.89 | 4.32 | 93 | 1011.9 |
| 20260501192013 | 63 | 16 | 0.0 | 5.2 | 0.18 | 4.89 | 4.32 | 93 | 1011.9 |
| 20260501191852 | 63 | 30 | 0.0 | 5.2 | 0.18 | 4.89 | 4.32 | 93 | 1011.9 |
| 20260501191714 | 63 | 36 | 0.0 | 5.2 | 0.17 | 4.88 | 4.31 | 93 | 1011.9 |
| 20260501191546 | 63 | 24 | 0.0 | 5.2 | 0.17 | 4.88 | 4.31 | 93 | 1011.9 |
| 20260501191420 | 63 | 41 | 0.0 | 3.5 | 0.17 | 4.88 | 4.31 | 93 | 1011.9 |
| 20260501191313 | 63 | 9 | 0.0 | 3.5 | 0.17 | 4.88 | 4.31 | 93 | 1012.5 |
| 20260501191204 | 63 | 14 | 0.0 | 3.5 | 0.18 | 4.88 | 4.31 | 93 | 1012.5 |
| 20260501191056 | 63 | 35 | 0.0 | 1.7 | 0.18 | 4.88 | 4.31 | 93 | 1012.5 |
| 20260501190931 | 63 | 24 | 0.0 | 1.7 | 0.18 | 4.88 | 4.31 | 93 | 1012.5 |
| 20260501190824 | 63 | 29 | 0.0 | 0.0 | 0.17 | 4.87 | 4.30 | 93 | 1012.5 |
| 20260501190715 | 63 | 21 | 0.0 | 0.0 | 0.17 | 4.87 | 4.30 | 93 | 1012.5 |
| 20260501190547 | 63 | 360 | 0.0 | 0.0 | 0.18 | 4.87 | 4.30 | 93 | 1012.5 |
| 20260501190416 | 63 | 44 | 0.0 | 0.0 | 0.18 | 4.87 | 4.30 | 93 | 1012.5 |
| 20260501190308 | 63 | 44 | 0.0 | 0.0 | 0.18 | 4.87 | 4.30 | 93 | 1012.5 |
| 20260501190200 | 63 | 348 | 0.0 | 0.0 | 0.18 | 4.87 | 4.30 | 93 | 1012.5 |
| 20260501190041 | 63 | 348 | 0.0 | 0.0 | 0.18 | 4.87 | 4.30 | 93 | 1012.5 |
| 20260501185904 | 63 | 348 | 0.0 | 0.0 | 0.18 | 4.86 | 4.29 | 93 | 1012.5 |
| 20260501185732 | 63 | 69 | 0.0 | 0.0 | 0.18 | 4.86 | 4.29 | 93 | 1012.2 |
| 20260501185624 | 63 | 84 | 0.0 | 0.0 | 0.17 | 4.85 | 4.28 | 93 | 1012.2 |
| 20260501185507 | 63 | 24 | 0.0 | 0.0 | 0.18 | 4.85 | 4.28 | 93 | 1012.2 |
| 20260501185323 | 63 | 24 | 0.0 | 0.0 | 0.18 | 4.85 | 4.28 | 93 | 1012.2 |
| 20260501185154 | 62 | 10 | 0.0 | 0.0 | 0.17 | 4.84 | 4.27 | 93 | 1012.2 |
| 20260501185045 | 62 | 10 | 0.0 | 0.0 | 0.17 | 4.84 | 4.27 | 93 | 1012.2 |
| 20260501184938 | 62 | 113 | 0.0 | 0.0 | 0.18 | 4.84 | 4.27 | 93 | 1012.2 |
| 20260501184751 | 62 | 118 | 0.0 | 0.0 | 0.17 | 4.83 | 4.26 | 93 | 1012.2 |
| 20260501184644 | 62 | 119 | 0.0 | 4.3 | 0.18 | 4.83 | 4.26 | 93 | 1012.2 |
| 20260501184534 | 62 | 119 | 0.0 | 4.3 | 0.18 | 4.83 | 4.26 | 93 | 1012.2 |
| 20260501184406 | 62 | 28 | 0.0 | 4.3 | 0.18 | 4.83 | 4.26 | 93 | 1012.2 |
| 20260501184235 | 62 | 12 | 0.0 | 4.3 | 0.17 | 4.82 | 4.25 | 93 | 1012.3 |
| 20260501184127 | 62 | 11 | 0.0 | 4.3 | 0.16 | 4.81 | 4.24 | 93 | 1012.3 |
| 20260501184019 | 62 | 10 | 0.0 | 4.3 | 0.16 | 4.81 | 4.24 | 93 | 1012.3 |
| 20260501183911 | 62 | 64 | 0.0 | 4.3 | 0.16 | 4.81 | 4.24 | 92 | 1012.3 |
| 20260501183747 | 62 | 28 | 0.0 | 1.7 | 0.15 | 4.80 | 4.23 | 93 | 1012.3 |
| 20260501183639 | 62 | 64 | 0.0 | 1.7 | 0.15 | 4.79 | 4.22 | 92 | 1012.3 |
| 20260501183510 | 62 | 340 | 0.0 | 1.7 | 0.14 | 4.78 | 4.21 | 93 | 1012.3 |
| 20260501183400 | 62 | 360 | 0.0 | 1.7 | 0.13 | 4.77 | 4.20 | 93 | 1012.3 |
| 20260501183230 | 62 | 19 | 0.0 | 0.0 | 0.12 | 4.76 | 4.19 | 93 | 1012.3 |
| 20260501183101 | 62 | 28 | 0.0 | 0.0 | 0.11 | 4.75 | 4.18 | 93 | 1012.3 |
| 20260501182947 | 62 | 5 | 0.0 | 0.0 | 0.10 | 4.74 | 4.17 | 93 | 1012.3 |
| 20260501182817 | 62 | 5 | 0.0 | 0.0 | 0.09 | 4.73 | 4.16 | 93 | 1010.8 |
| 20260501182651 | 62 | 5 | 0.0 | 0.0 | 0.10 | 4.73 | 4.16 | 93 | 1010.8 |
| 20260501182542 | 62 | 11 | 0.0 | 0.0 | 0.09 | 4.72 | 4.15 | 92 | 1010.8 |
| 20260501182416 | 62 | 309 | 0.0 | 0.9 | 0.09 | 4.72 | 4.15 | 92 | 1010.8 |
| 20260501182301 | 62 | 42 | 0.0 | 0.9 | 0.09 | 4.72 | 4.15 | 92 | 1010.8 |
| 20260501182136 | 62 | 42 | 0.0 | 0.9 | 0.08 | 4.71 | 4.14 | 92 | 1010.8 |
| 20260501182028 | 62 | 23 | 0.0 | 0.9 | 0.08 | 4.71 | 4.14 | 92 | 1010.8 |
| 20260501181920 | 62 | 146 | 0.0 | 0.9 | 0.09 | 4.71 | 4.14 | 92 | 1010.8 |
| 20260501181751 | 62 | 39 | 0.0 | 0.9 | 0.09 | 4.71 | 4.14 | 92 | 1010.8 |
| 20260501181626 | 62 | 105 | 0.0 | 0.9 | 0.09 | 4.71 | 4.14 | 92 | 1010.8 |
| 20260501181519 | 62 | 82 | 0.0 | 2.6 | 0.09 | 4.71 | 4.14 | 92 | 1010.8 |
| 20260501181411 | 62 | 85 | 0.0 | 2.6 | 0.09 | 4.71 | 4.14 | 92 | 1010.8 |
| 20260501181303 | 62 | 78 | 0.0 | 2.6 | 0.09 | 4.70 | 4.13 | 92 | 1010.8 |
| 20260501181132 | 62 | 61 | 0.0 | 2.6 | 0.09 | 4.70 | 4.13 | 92 | 1010.8 |
| 20260501181002 | 62 | 49 | 0.0 | 2.6 | 0.09 | 4.70 | 4.13 | 92 | 1010.8 |
| 20260501180854 | 62 | 26 | 0.0 | 2.6 | 0.09 | 4.70 | 4.13 | 92 | 1010.8 |
| 20260501180746 | 62 | 5 | 0.0 | 2.6 | 0.09 | 4.70 | 4.13 | 92 | 1010.8 |
| 20260501180621 | 62 | 319 | 0.0 | 0.9 | 0.08 | 4.69 | 4.12 | 92 | 1010.8 |
| 20260501180511 | 62 | 84 | 0.0 | 0.9 | 0.08 | 4.69 | 4.12 | 92 | 1010.8 |
| 20260501180404 | 62 | 311 | 0.0 | 0.9 | 0.08 | 4.69 | 4.12 | 92 | 1010.8 |
| 20260501180257 | 62 | 9 | 0.0 | 3.5 | 0.08 | 4.69 | 4.12 | 92 | 1010.8 |
| 20260501180120 | 62 | 132 | 0.0 | 3.5 | 0.08 | 4.69 | 4.12 | 92 | 1010.8 |
| 20260501175958 | 62 | 54 | 0.0 | 3.5 | 0.07 | 4.68 | 4.11 | 92 | 1010.8 |
| 20260501175842 | 62 | 146 | 0.0 | 3.5 | 0.07 | 4.68 | 4.11 | 92 | 1012.3 |
| 20260501175733 | 62 | 113 | 0.0 | 3.5 | 0.07 | 4.68 | 4.11 | 92 | 1012.3 |
| 20260501175610 | 62 | 136 | 0.0 | 3.5 | 0.06 | 4.67 | 4.10 | 92 | 1012.3 |
| 20260501175502 | 62 | 44 | 0.0 | 3.5 | 0.06 | 4.67 | 4.10 | 92 | 1012.3 |
| 20260501175332 | 62 | 16 | 0.0 | 4.3 | 0.06 | 4.67 | 4.10 | 92 | 1012.3 |
| 20260501175225 | 62 | 343 | 0.9 | 4.3 | 0.06 | 4.67 | 4.10 | 92 | 1012.3 |
| 20260501175100 | 62 | 5 | 0.9 | 4.3 | 0.06 | 4.67 | 4.10 | 92 | 1012.3 |
| 20260501174953 | 62 | 35 | 0.0 | 3.5 | 0.05 | 4.66 | 4.09 | 92 | 1012.3 |
| 20260501174843 | 62 | 17 | 0.0 | 3.5 | 0.05 | 4.66 | 4.09 | 92 | 1012.3 |
| 20260501174735 | 62 | 338 | 0.9 | 3.5 | 0.05 | 4.65 | 4.09 | 92 | 1012.3 |
| 20260501174604 | 62 | 20 | 0.0 | 1.7 | 0.05 | 4.65 | 4.08 | 92 | 1012.3 |
| 20260501174455 | 62 | 5 | 0.0 | 1.7 | 0.05 | 4.65 | 4.08 | 92 | 1012.3 |
| 20260501174347 | 63 | 355 | 0.0 | 1.7 | 0.06 | 4.65 | 4.08 | 92 | 1012.7 |
| 20260501174239 | 63 | 5 | 0.0 | 1.7 | 0.06 | 4.65 | 4.08 | 92 | 1012.7 |
| 20260501174115 | 63 | 5 | 0.0 | 1.7 | 0.06 | 4.65 | 4.08 | 92 | 1012.7 |
| 20260501174007 | 63 | 324 | 0.0 | 1.7 | 0.06 | 4.65 | 4.08 | 92 | 1012.7 |
| 20260501173900 | 63 | 296 | 0.0 | 0.9 | 0.07 | 4.65 | 4.08 | 93 | 1012.7 |
| 20260501173748 | 63 | 333 | 0.0 | 0.9 | 0.07 | 4.64 | 4.07 | 92 | 1012.7 |
| 20260501173641 | 63 | 329 | 0.0 | 1.7 | 0.07 | 4.64 | 4.07 | 92 | 1012.7 |
| 20260501173512 | 63 | 24 | 0.0 | 1.7 | 0.07 | 4.64 | 4.07 | 92 | 1012.7 |
| 20260501173403 | 63 | 29 | 0.0 | 1.7 | 0.08 | 4.64 | 4.07 | 92 | 1012.7 |
| 20260501173255 | 63 | 348 | 0.0 | 1.7 | 0.09 | 4.64 | 4.07 | 92 | 1012.7 |
| 20260501173123 | 63 | 18 | 0.0 | 1.7 | 0.09 | 4.64 | 4.07 | 92 | 1012.7 |
| 20260501173016 | 63 | 336 | 0.0 | 1.7 | 0.10 | 4.64 | 4.07 | 92 | 1012.7 |
| 20260501172847 | 63 | 325 | 0.0 | 1.7 | 0.10 | 4.64 | 4.07 | 92 | 1013.1 |
| 20260501172739 | 63 | 5 | 0.0 | 1.7 | 0.09 | 4.63 | 4.06 | 93 | 1013.1 |
| 20260501172554 | 63 | 330 | 0.0 | 0.9 | 0.10 | 4.63 | 4.06 | 92 | 1013.1 |
| 20260501172405 | 63 | 321 | 0.0 | 0.9 | 0.11 | 4.63 | 4.06 | 92 | 1013.1 |
| 20260501172254 | 63 | 309 | 0.0 | 0.9 | 0.11 | 4.63 | 4.06 | 93 | 1013.1 |